EW1458 Weather Reports


Display with metric or nautical units.
time (UTC)temp
F
wind
direction
speed
MPH
gust
MPH
rain 1hr
in
rain 24hr
in
rain mn
in
humidity
%
barometer
mb
20260831085618 58 173 1.0 4.0 0.00 0.23 0.06 96 1012.6
20260831085122 58 250 0.0 4.0 0.00 0.23 0.06 96 1012.5
20260831085100 58 203 1.0 4.0 0.00 0.23 0.06 96 1012.3
20260831084114 58 290 0.0 5.0 0.00 0.23 0.06 97 1012.5
20260831083612 58 6 1.0 5.0 0.00 0.23 0.06 97 1012.3
20260831083113 58 308 1.0 5.0 0.00 0.23 0.06 97 1012.4
20260831082603 58 327 0.0 3.0 0.00 0.23 0.06 97 1012.4
20260831082233 58 241 0.0 2.0 0.00 0.23 0.06 97 1012.3
20260831081102 58 224 2.0 4.0 0.00 0.23 0.06 97 1012.3
20260831080954 58 253 0.0 4.0 0.00 0.23 0.06 97 1012.4
20260831080517 59 258 0.0 4.0 0.00 0.23 0.06 97 1012.2
20260831075601 59 261 1.0 4.0 0.00 0.23 0.06 97 1012.1
20260831075524 59 294 2.0 5.0 0.00 0.23 0.06 97 1012.2
20260831074555 59 258 2.0 6.0 0.00 0.23 0.06 97 1012.3
20260831074100 59 221 4.0 6.0 0.00 0.23 0.06 97 1012.2
20260831073549 59 238 2.0 3.0 0.00 0.23 0.06 97 1012.1
20260831073042 59 287 2.0 3.0 0.00 0.23 0.06 96 1012.0
20260831072544 59 267 2.0 3.0 0.01 0.23 0.06 96 1011.8
20260831072452 59 232 1.0 3.0 0.01 0.23 0.06 96 1011.9
20260831071535 60 281 1.0 3.0 0.01 0.23 0.06 96 1011.7
20260831071032 60 290 1.0 5.0 0.01 0.23 0.06 96 1011.9
20260831070531 60 299 2.0 5.0 0.01 0.23 0.06 96 1011.7
20260831070457 60 168 2.0 4.0 0.01 0.23 0.06 97 1011.9
20260831065510 60 269 0.0 3.0 0.01 0.23 0.06 97 1011.9
20260831065011 60 19 0.0 3.0 0.01 0.23 0.06 97 1011.8
20260831064917 60 290 0.0 3.0 0.01 0.23 0.06 97 1011.8
20260831064007 60 157 0.0 4.0 0.01 0.23 0.06 97 1011.6
20260831063926 60 303 1.0 4.0 0.01 0.23 0.06 97 1011.7
20260831063003 60 123 0.0 4.0 0.01 0.23 0.06 97 1011.7
20260831062458 60 154 2.0 6.0 0.00 0.22 0.05 97 1011.5
20260831061956 60 315 2.0 6.0 0.00 0.22 0.05 97 1011.4
20260831061452 60 278 3.0 4.0 0.00 0.22 0.05 97 1011.4
20260831061354 60 314 3.0 4.0 0.01 0.22 0.05 97 1011.6
20260831060450 60 285 0.0 5.0 0.01 0.22 0.05 97 1011.5
20260831055949 60 309 2.0 5.0 0.01 0.22 0.05 97 1011.5
20260831055856 60 240 2.0 5.0 0.01 0.22 0.05 97 1011.3
20260831054947 60 244 0.0 6.0 0.01 0.22 0.05 97 1011.3
20260831054437 60 276 1.0 8.0 0.02 0.22 0.05 97 1011.6
20260831053939 60 214 3.0 8.0 0.02 0.22 0.05 97 1011.5
20260831053434 60 234 3.0 6.0 0.02 0.22 0.05 96 1011.2
20260831052933 60 217 2.0 8.0 0.02 0.22 0.05 96 1011.4
20260831052820 60 244 4.0 8.0 0.02 0.22 0.05 96 1011.6
20260831051929 60 278 3.0 7.0 0.02 0.22 0.05 96 1011.5
20260831051831 60 242 2.0 7.0 0.02 0.22 0.05 96 1011.4
20260831050926 60 263 2.0 9.0 0.01 0.20 0.03 95 1011.7
20260831050848 60 263 2.0 11.0 0.01 0.20 0.03 95 1011.7
20260831050358 60 258 4.0 11.0 0.01 0.20 0.03 95 1011.7
20260831045413 60 217 7.0 9.0 0.01 0.20 0.03 96 1011.8
20260831044909 60 232 7.0 9.0 0.01 0.20 0.03 96 1011.8
20260831044550 60 233 5.0 8.0 0.00 0.19 0.02 96 1011.5
20260831043904 60 222 5.0 7.0 0.00 0.19 0.02 96 1011.5
20260831043400 60 236 4.0 6.0 0.00 0.19 0.02 96 1011.5
20260831042900 60 225 3.0 4.0 0.01 0.19 0.02 96 1011.5
20260831042355 60 281 0.0 2.0 0.01 0.19 0.02 95 1011.4
20260831041855 60 253 0.0 4.0 0.02 0.19 0.02 95 1011.0
20260831041810 60 271 1.0 5.0 0.02 0.19 0.02 95 1011.0
20260831040906 60 297 1.0 5.0 0.02 0.19 0.02 95 1010.9
20260831040757 60 258 1.0 5.0 0.02 0.19 0.02 96 1011.1
20260831035848 60 312 2.0 5.0 0.02 0.19 0.02 96 1011.3
20260831035759 60 64 0.0 5.0 0.02 0.19 0.02 96 1011.1
20260831034841 60 98 2.0 6.0 0.02 0.19 0.02 96 1011.6
20260831034807 60 215 4.0 6.0 0.02 0.19 0.02 95 1011.6
20260831033837 60 232 1.0 6.0 0.04 0.19 0.02 95 1011.6
20260831033736 60 36 0.0 6.0 0.04 0.19 0.02 95 1011.6
20260831032835 61 211 4.0 6.0 0.04 0.18 0.01 95 1011.5
20260831032334 61 346 0.0 6.0 0.05 0.18 0.01 95 1011.7
20260831031832 61 252 2.0 6.0 0.04 0.17 0.00 95 1012.0
20260831031330 61 263 4.0 8.0 0.05 0.17 0.00 96 1011.9
20260831030829 61 275 6.0 9.0 0.05 0.17 0.00 96 1012.2
20260831030331 62 249 4.0 9.0 0.05 0.17 0.00 96 1012.0
20260831025830 62 230 3.0 9.0 0.05 0.17 0.17 96 1012.0
20260831025330 62 251 5.0 9.0 0.05 0.17 0.17 96 1011.9
20260831024829 62 249 5.0 10.0 0.06 0.17 0.17 96 1011.9
20260831024326 62 240 5.0 10.0 0.06 0.17 0.17 96 1011.6
20260831023826 62 231 4.0 10.0 0.05 0.16 0.16 96 1011.7
20260831023326 62 240 7.0 10.0 0.05 0.16 0.16 95 1012.0
20260831022820 62 303 4.0 11.0 0.03 0.14 0.14 96 1011.9
20260831022318 62 231 2.0 11.0 0.02 0.13 0.13 96 1011.6
20260831022241 62 251 6.0 9.0 0.02 0.13 0.13 96 1011.7
20260831021313 62 326 3.0 8.0 0.01 0.12 0.12 96 1011.5
20260831020803 61 220 4.0 7.0 0.01 0.12 0.12 96 1011.7
20260831020259 61 247 4.0 7.0 0.01 0.12 0.12 96 1011.8
20260831015749 61 256 2.0 7.0 0.01 0.12 0.12 96 1011.9
20260831015249 61 236 2.0 6.0 0.01 0.12 0.12 96 1011.8
20260831014745 61 267 5.0 6.0 0.00 0.11 0.11 96 1011.8
20260831014240 61 324 1.0 4.0 0.01 0.11 0.11 96 1011.5
20260831013739 61 268 2.0 3.0 0.01 0.11 0.11 96 1011.4
20260831013235 61 318 2.0 2.0 0.01 0.11 0.11 96 1011.0
20260831013129 61 290 0.0 3.0 0.01 0.11 0.11 96 1011.0
20260831012231 61 318 2.0 3.0 0.09 0.11 0.11 96 1011.2
20260831011732 61 348 0.0 3.0 0.09 0.11 0.11 96 1011.0
20260831011231 61 300 3.0 3.0 0.09 0.11 0.11 95 1011.3
20260831010730 61 290 0.0 6.0 0.09 0.11 0.11 95 1011.3
20260831010224 61 59 1.0 6.0 0.09 0.11 0.11 95 1011.4
20260831005722 61 273 1.0 5.0 0.09 0.11 0.11 95 1011.6
20260831005221 61 275 2.0 2.0 0.09 0.11 0.11 94 1011.4
20260831004717 62 216 1.0 3.0 0.09 0.11 0.11 94 1011.5
20260831004215 62 260 2.0 3.0 0.08 0.09 0.09 94 1011.6
20260831003711 62 265 1.0 3.0 0.08 0.09 0.09 93 1011.5
20260831003557 62 101 1.0 5.0 0.09 0.09 0.09 92 1011.6
20260831003034 62 199 0.0 9.0 0.09 0.09 0.09 92 1011.8
20260831002206 62 289 2.0 9.0 0.01 0.01 0.01 92 1012.1
20260831001706 62 305 4.0 8.0 0.01 0.01 0.01 91 1011.9
20260831001608 62 228 2.0 2.0 0.01 0.01 0.01 90 1011.4
20260831000702 62 265 1.0 3.0 0.01 0.01 0.01 90 1011.3
20260831000153 63 256 2.0 3.0 0.01 0.01 0.01 89 1011.2
20260830235655 63 208 2.0 3.0 0.01 0.01 0.01 89 1011.4
20260830235149 63 192 2.0 3.0 0.01 0.01 0.01 88 1011.6
20260830234645 63 143 0.0 4.0 0.01 0.01 0.01 87 1011.4
20260830234142 64 271 0.0 7.0 0.01 0.01 0.01 86 1011.7
20260830233636 64 276 3.0 9.0 0.01 0.01 0.01 84 1011.9
20260830233134 65 236 2.0 16.0 0.00 0.00 0.00 83 1012.0
20260830232633 65 280 4.0 16.0 0.00 0.00 0.00 81 1012.3
20260830232133 66 265 4.0 14.0 0.00 0.00 0.00 81 1012.2
20260830231628 65 198 3.0 14.0 0.00 0.00 0.00 82 1012.3
20260830231128 66 268 5.0 11.0 0.00 0.00 0.00 82 1012.1
20260830230626 66 234 6.0 11.0 0.00 0.00 0.00 81 1012.1
20260830230124 65 280 5.0 5.0 0.00 0.00 0.00 83 1012.0
20260830225624 66 277 4.0 5.0 0.00 0.00 0.00 83 1012.1
20260830225120 66 244 2.0 3.0 0.00 0.00 0.00 83 1011.4
20260830224619 66 289 1.0 3.0 0.00 0.00 0.00 82 1011.6
20260830224118 66 306 2.0 3.0 0.00 0.00 0.00 82 1011.7
20260830223618 66 290 2.0 4.0 0.00 0.00 0.00 82 1011.8
20260830223116 66 259 2.0 6.0 0.00 0.00 0.00 82 1011.7
20260830222612 66 253 3.0 6.0 0.00 0.00 0.00 81 1011.6
20260830222112 66 256 1.0 8.0 0.00 0.00 0.00 81 1011.7
20260830221602 66 238 4.0 8.0 0.00 0.00 0.00 81 1011.9
20260830221104 67 217 5.0 8.0 0.00 0.00 0.00 81 1011.7
20260830220600 67 240 2.0 8.0 0.00 0.00 0.00 81 1011.6
20260830220104 67 260 3.0 7.0 0.00 0.00 0.00 81 1011.6
20260830215553 67 260 3.0 8.0 0.00 0.00 0.00 80 1011.5
20260830215051 67 252 3.0 8.0 0.00 0.00 0.00 79 1011.7
20260830214551 67 239 5.0 7.0 0.00 0.00 0.00 78 1011.9
20260830214045 67 263 3.0 8.0 0.00 0.00 0.00 77 1011.6
20260830213545 68 248 6.0 8.0 0.00 0.00 0.00 75 1011.7
20260830213045 68 273 2.0 9.0 0.00 0.00 0.00 75 1011.5
20260830212537 68 141 2.0 9.0 0.00 0.00 0.00 74 1011.8
20260830212047 69 232 4.0 11.0 0.00 0.00 0.00 73 1011.8
20260830211622 69 306 3.0 11.0 0.00 0.00 0.00 73 1011.9
20260830211134 69 272 6.0 11.0 0.00 0.00 0.00 73 1011.9
20260830205520 69 256 4.0 8.0 0.00 0.00 0.00 70 1011.8
20260830205015 70 229 3.0 10.0 0.00 0.00 0.00 70 1012.0
20260830204706 70 252 4.0 12.0 0.00 0.00 0.00 69 1012.0
20260830204552 70 274 2.0 12.0 0.00 0.00 0.00 70 1011.8
20260830203005 70 269 3.0 11.0 0.00 0.00 0.00 68 1011.8
20260830202457 70 307 4.0 12.0 0.00 0.00 0.00 68 1011.8
20260830201957 70 263 3.0 14.0 0.00 0.00 0.00 67 1011.9
20260830201455 70 282 4.0 14.0 0.00 0.00 0.00 66 1011.9
20260830200953 71 258 6.0 13.0 0.00 0.00 0.00 66 1012.1
20260830200452 71 232 3.0 13.0 0.00 0.00 0.00 65 1012.1
20260830200441 71 236 7.0 13.0 0.00 0.00 0.00 64 1012.1
20260830195445 71 266 8.0 14.0 0.00 0.00 0.00 64 1011.9
20260830194945 71 252 6.0 14.0 0.00 0.00 0.00 63 1012.3
20260830194633 72 244 9.0 11.0 0.00 0.00 0.00 62 1012.4
20260830193427 72 234 8.0 16.0 0.00 0.00 0.00 60 1012.5
20260830192928 72 243 5.0 15.0 0.00 0.00 0.00 60 1012.3
20260830192836 73 250 5.0 16.0 0.00 0.00 0.00 59 1012.6
20260830191911 73 253 12.0 16.0 0.00 0.00 0.00 57 1012.6
20260830191409 74 246 10.0 15.0 0.00 0.00 0.00 56 1012.6
20260830191338 74 238 9.0 19.0 0.00 0.00 0.00 55 1012.6
20260830190404 75 238 8.0 19.0 0.00 0.00 0.00 55 1012.6
20260830185904 75 271 5.0 16.0 0.00 0.00 0.00 55 1012.7
20260830185359 75 310 4.0 19.0 0.00 0.00 0.00 55 1012.6
20260830184902 75 237 8.0 20.0 0.00 0.00 0.00 54 1012.7
20260830184357 74 248 9.0 20.0 0.00 0.00 0.00 54 1012.8
20260830183845 75 240 15.0 18.0 0.00 0.00 0.00 53 1012.8
20260830183347 75 240 11.0 19.0 0.00 0.00 0.00 53 1012.6
20260830182846 75 224 17.0 23.0 0.00 0.00 0.00 52 1012.6
20260830182341 75 240 10.0 23.0 0.00 0.00 0.00 53 1012.8
20260830181828 76 279 5.0 18.0 0.00 0.00 0.00 52 1013.0
20260830181714 75 256 6.0 21.0 0.00 0.00 0.00 52 1012.9
20260830180823 75 247 10.0 21.0 0.00 0.00 0.00 50 1013.0
20260830180323 76 238 9.0 19.0 0.00 0.00 0.00 51 1013.2
20260830175812 76 248 7.0 19.0 0.00 0.00 0.00 51 1012.9
20260830175309 76 260 7.0 19.0 0.00 0.00 0.00 52 1012.9
20260830175214 76 257 12.0 20.0 0.00 0.00 0.00 50 1013.1
20260830174728 76 246 9.0 20.0 0.00 0.00 0.00 51 1013.0
20260830174227 76 253 7.0 20.0 0.00 0.00 0.00 51 1013.1
20260830173640 76 257 10.0 20.0 0.00 0.00 0.00 51 1013.3
20260830172759 76 237 8.0 19.0 0.00 0.00 0.00 49 1013.1
20260830172258 76 282 6.0 22.0 0.00 0.00 0.00 53 1013.1
20260830171758 76 263 6.0 22.0 0.00 0.00 0.00 51 1013.3
20260830171257 75 305 6.0 19.0 0.00 0.00 0.00 53 1013.4
20260830171157 75 240 7.0 15.0 0.00 0.00 0.00 56 1013.3
20260830170309 75 277 7.0 20.0 0.00 0.00 0.00 56 1013.4
20260830165755 75 293 10.0 20.0 0.00 0.00 0.00 54 1013.5
20260830165252 75 267 6.0 20.0 0.00 0.00 0.00 54 1013.7
20260830164753 75 279 9.0 15.0 0.00 0.00 0.00 56 1013.6
20260830164252 75 277 8.0 15.0 0.00 0.00 0.00 54 1013.8
20260830163750 75 264 8.0 19.0 0.00 0.00 0.00 53 1013.7
20260830163246 75 259 5.0 19.0 0.00 0.00 0.00 53 1013.7
20260830162746 76 269 9.0 15.0 0.00 0.00 0.00 49 1013.8
20260830162241 75 259 6.0 15.0 0.00 0.00 0.00 54 1013.9
20260830161740 75 295 5.0 20.0 0.00 0.00 0.00 56 1014.0
20260830161237 75 274 9.0 20.0 0.00 0.00 0.00 53 1014.0
20260830160941 75 252 9.0 21.0 0.00 0.00 0.00 53 1013.8
20260830155726 74 264 7.0 21.0 0.00 0.00 0.00 51 1014.0
20260830155225 75 232 13.0 22.0 0.00 0.00 0.00 52 1014.1
20260830155104 74 260 6.0 23.0 0.00 0.00 0.00 52 1014.0
20260830154602 74 289 7.0 23.0 0.00 0.00 0.00 53 1014.2
20260830153708 74 242 11.0 23.0 0.00 0.00 0.00 53 1014.3
20260830153209 74 260 6.0 21.0 0.00 0.00 0.00 55 1014.3
20260830152704 75 248 9.0 21.0 0.00 0.00 0.00 54 1014.6
20260830152205 74 239 11.0 15.0 0.00 0.00 0.00 58 1014.5
20260830151703 75 269 6.0 15.0 0.00 0.00 0.00 57 1014.6
20260830151201 74 232 7.0 18.0 0.00 0.00 0.00 59 1014.4
20260830150701 73 248 8.0 18.0 0.00 0.00 0.00 62 1014.7
20260830150159 73 237 10.0 18.0 0.00 0.00 0.00 60 1014.7
20260830145657 73 282 6.0 20.0 0.00 0.00 0.00 63 1015.0
20260830145151 73 263 7.0 20.0 0.00 0.00 0.00 64 1015.0
20260830144646 72 275 8.0 19.0 0.00 0.00 0.00 64 1015.2
20260830144533 72 236 5.0 19.0 0.00 0.00 0.00 65 1015.3
20260830144043 72 266 4.0 25.0 0.00 0.00 0.00 69 1015.4
20260830143139 72 240 4.0 25.0 0.00 0.00 0.00 67 1015.4
20260830142629 73 211 5.0 17.0 0.00 0.00 0.00 68 1015.5
20260830142520 72 266 5.0 12.0 0.00 0.00 0.00 69 1015.6
20260830141627 72 224 7.0 13.0 0.00 0.00 0.00 69 1015.7
20260830141126 72 256 6.0 13.0 0.00 0.00 0.00 69 1015.7
20260830140624 71 220 8.0 13.0 0.00 0.00 0.00 71 1015.7
20260830140126 71 239 5.0 13.0 0.00 0.00 0.00 71 1015.8
20260830135624 71 230 10.0 11.0 0.00 0.00 0.00 73 1015.8
20260830135121 71 284 6.0 8.0 0.00 0.00 0.00 75 1015.7
20260830135028 70 252 3.0 7.0 0.00 0.00 0.00 78 1015.8
20260830134118 70 279 3.0 11.0 0.00 0.00 0.00 82 1016.0
20260830133617 69 235 10.0 11.0 0.00 0.00 0.00 77 1015.8
20260830133109 69 257 4.0 10.0 0.00 0.00 0.00 81 1015.8
20260830132556 68 224 5.0 10.0 0.00 0.00 0.00 82 1016.0
20260830132059 68 246 4.0 8.0 0.00 0.00 0.00 81 1016.2
20260830131600 67 255 4.0 8.0 0.00 0.00 0.00 84 1016.1
20260830131059 67 259 4.0 7.0 0.00 0.00 0.00 83 1016.1
20260830130554 67 254 4.0 7.0 0.00 0.00 0.00 85 1016.0
20260830130509 66 255 2.0 10.0 0.00 0.00 0.00 86 1016.3
20260830125555 65 228 10.0 10.0 0.00 0.00 0.00 86 1016.5
20260830125052 65 291 4.0 9.0 0.00 0.00 0.00 87 1016.3
20260830124536 65 301 5.0 9.0 0.00 0.00 0.00 88 1016.6
20260830124040 64 282 3.0 6.0 0.00 0.00 0.00 89 1016.4
20260830123538 64 254 3.0 5.0 0.00 0.00 0.00 89 1016.3
20260830123039 63 258 2.0 6.0 0.00 0.00 0.00 91 1016.6
20260830122924 62 215 4.0 8.0 0.00 0.00 0.00 91 1016.6
20260830122435 62 332 3.0 8.0 0.00 0.00 0.00 93 1016.6
20260830121525 61 261 4.0 6.0 0.00 0.00 0.00 95 1016.6
20260830121029 60 314 2.0 6.0 0.00 0.00 0.00 98 1016.7
20260830120524 60 269 2.0 5.0 0.00 0.00 0.00 99 1016.7
20260830120434 59 275 3.0 5.0 0.00 0.00 0.00 99 1016.9
20260830115912 59 282 2.0 5.0 0.00 0.00 0.00 99 1017.0
20260830115029 59 328 2.0 4.0 0.00 0.00 0.00 99 1017.1
20260830114517 58 262 4.0 4.0 0.00 0.00 0.00 99 1016.9
20260830114028 57 324 3.0 4.0 0.00 0.00 0.00 99 1017.1
20260830113514 56 273 2.0 4.0 0.00 0.00 0.00 99 1017.1
20260830113453 55 293 2.0 2.0 0.00 0.00 0.00 99 1016.9
20260830112521 55 331 1.0 2.0 0.00 0.00 0.00 99 1017.1
20260830112021 54 6 0.0 1.0 0.00 0.00 0.00 99 1017.1
20260830111507 53 272 0.0 2.0 0.00 0.00 0.00 99 1017.2
20260830111357 53 108 0.0 2.0 0.00 0.00 0.00 99 1017.2
20260830110509 52 111 1.0 2.0 0.00 0.00 0.00 99 1017.2
20260830110417 52 25 0.0 2.0 0.00 0.00 0.00 99 1017.5
20260830105500 51 7 0.0 2.0 0.00 0.00 0.00 99 1017.5
20260830105000 51 15 0.0 1.0 0.00 0.00 0.00 99 1017.5
20260830104457 51 47 0.0 1.0 0.00 0.00 0.00 99 1017.7
20260830103955 51 0.0 0.0 0.00 0.00 0.00 99